When you browse on this site, cookies collect data to enhance your experience and personalize the content and advertising you see.
Visit our Privacy Policy to learn more. By continuing to use the site, you agree to this use of cookies and data.
  • In Latvia
  • List of Countries
  • For 7 days
  • Water Temperature
  • Satellite Maps
  • Weather Map
  • Weather Widgets
  • user-avatar
    Login

    Hourly Weather Concord

    Today, 19 July, Friday

    Time Temperature Precipitation Wind Pressure Humidity
    00:00 +15°C° 0 mm 0 mps 751 mmHg 77%
    01:00 +15°C° 0 mm 0 mps 751 mmHg 77%
    02:00 +16°C° 0 mm 0 mps 750 mmHg 75%
    03:00 +16°C° 0 mm 0 mps 750 mmHg 73%
    04:00 +17°C° 0 mm 0 mps 750 mmHg 71%
    05:00 +18°C° 0 mm 0 mps 750 mmHg 71%
    06:00 +19°C° 0 mm 0 mps 750 mmHg 71%
    07:00 +22°C° 0 mm 1 mps 750 mmHg 71%
    08:00 +25°C° 0 mm 1 mps 750 mmHg 67%
    09:00 +28°C° 0 mm 1 mps 749 mmHg 63%
    10:00 +30°C° 0 mm 2 mps 749 mmHg 59%
    11:00 +32°C° 0 mm 2 mps 748 mmHg 55%
    12:00 +34°C° 0 mm 3 mps 748 mmHg 51%
    13:00 +36°C° 0 mm 3 mps 748 mmHg 47%
    14:00 +36°C° 0 mm 3 mps 747 mmHg 46%
    15:00 +37°C° 0 mm 4 mps 747 mmHg 45%
    16:00 +37°C° 0 mm 4 mps 746 mmHg 45%
    17:00 +35°C° 0.1 mm 3 mps 746 mmHg 56%
    18:00 +31°C° 0.1 mm 3 mps 746 mmHg 67%
    19:00 +29°C° 0.1 mm 3 mps 747 mmHg 78%
    20:00 +28°C° 0 mm 2 mps 747 mmHg 78%
    21:00 +28°C° 0 mm 2 mps 747 mmHg 77%
    22:00 +27°C° 0 mm 2 mps 747 mmHg 76%
    23:00 +27°C° 0 mm 2 mps 747 mmHg 78%

    Tomorrow, 20 July, Saturday

    Time Temperature Precipitation Wind Pressure Humidity
    00:00 +27°C° 0 mm 2 mps 746 mmHg 81%
    01:00 +26°C° 0 mm 2 mps 746 mmHg 83%
    02:00 +26°C° 0 mm 2 mps 746 mmHg 86%
    03:00 +25°C° 0 mm 1 mps 746 mmHg 89%
    04:00 +25°C° 0 mm 1 mps 746 mmHg 92%
    05:00 +26°C° 0 mm 1 mps 746 mmHg 88%
    06:00 +27°C° 0 mm 1 mps 747 mmHg 83%
    07:00 +29°C° 0 mm 1 mps 747 mmHg 78%
    08:00 +31°C° 0 mm 1 mps 747 mmHg 68%
    09:00 +34°C° 0 mm 2 mps 747 mmHg 58%
    10:00 +36°C° 0 mm 2 mps 747 mmHg 48%
    11:00 +37°C° 0 mm 2 mps 747 mmHg 43%
    12:00 +38°C° 0 mm 3 mps 747 mmHg 38%
    13:00 +39°C° 0 mm 3 mps 747 mmHg 33%
    14:00 +39°C° 0 mm 3 mps 747 mmHg 34%
    15:00 +39°C° 0 mm 3 mps 746 mmHg 35%
    16:00 +38°C° 0 mm 3 mps 746 mmHg 37%
    17:00 +36°C° 0 mm 3 mps 746 mmHg 47%
    18:00 +32°C° 0 mm 2 mps 747 mmHg 57%
    19:00 +29°C° 0 mm 2 mps 747 mmHg 67%
    20:00 +29°C° 0 mm 2 mps 746 mmHg 67%
    21:00 +28°C° 0 mm 2 mps 746 mmHg 67%
    22:00 +27°C° 0 mm 2 mps 746 mmHg 67%
    23:00 +27°C° 0 mm 2 mps 746 mmHg 72%

    Day after tomorrow, 21 July, Sunday

    Time Temperature Precipitation Wind Pressure Humidity
    00:00 +27°C° 0 mm 2 mps 746 mmHg 76%
    01:00 +26°C° 0 mm 1 mps 746 mmHg 80%
    02:00 +26°C° 0 mm 1 mps 746 mmHg 81%
    03:00 +26°C° 0 mm 1 mps 746 mmHg 82%
    04:00 +26°C° 0 mm 1 mps 746 mmHg 83%
    05:00 +26°C° 0 mm 1 mps 746 mmHg 80%
    06:00 +27°C° 0 mm 1 mps 746 mmHg 78%
    07:00 +28°C° 0 mm 1 mps 747 mmHg 76%
    08:00 +30°C° 0 mm 2 mps 746 mmHg 69%
    09:00 +34°C° 0 mm 2 mps 746 mmHg 61%
    10:00 +36°C° 0 mm 2 mps 746 mmHg 54%
    11:00 +37°C° 0 mm 3 mps 746 mmHg 49%
    12:00 +39°C° 0 mm 3 mps 745 mmHg 45%
    13:00 +41°C° 0 mm 4 mps 745 mmHg 40%
    14:00 +41°C° 0 mm 4 mps 745 mmHg 40%
    15:00 +40°C° 0 mm 5 mps 745 mmHg 41%
    16:00 +40°C° 0 mm 5 mps 745 mmHg 42%
    17:00 +36°C° 0 mm 4 mps 745 mmHg 51%
    18:00 +34°C° 0 mm 4 mps 745 mmHg 60%
    19:00 +30°C° 0 mm 3 mps 745 mmHg 69%
    20:00 +29°C° 0 mm 3 mps 745 mmHg 74%
    21:00 +28°C° 0 mm 2 mps 745 mmHg 78%
    22:00 +27°C° 0 mm 2 mps 745 mmHg 83%
    23:00 +26°C° 0 mm 2 mps 745 mmHg 84%

    22 July, Monday

    Time Temperature Precipitation Wind Pressure Humidity
    00:00 +26°C° 0 mm 2 mps 746 mmHg 86%
    01:00 +26°C° 0 mm 1 mps 746 mmHg 87%
    02:00 +25°C° 0 mm 1 mps 746 mmHg 88%
    03:00 +25°C° 0 mm 1 mps 746 mmHg 88%
    04:00 +24°C° 0 mm 1 mps 746 mmHg 89%
    05:00 +24°C° 0 mm 1 mps 746 mmHg 89%
    06:00 +24°C° 0 mm 1 mps 747 mmHg 88%
    07:00 +24°C° 0 mm 1 mps 747 mmHg 88%
    08:00 +24°C° 0 mm 1 mps 747 mmHg 86%
    09:00 +25°C° 0 mm 1 mps 747 mmHg 83%
    10:00 +25°C° 0 mm 1 mps 748 mmHg 81%
    11:00 +25°C° 0.3 mm 1 mps 748 mmHg 85%
    12:00 +22°C° 0.3 mm 0 mps 748 mmHg 88%
    13:00 +21°C° 0.3 mm 0 mps 748 mmHg 92%
    14:00 +21°C° 0.1 mm 0 mps 748 mmHg 92%
    15:00 +21°C° 0.1 mm 0 mps 748 mmHg 92%
    16:00 +21°C° 0.1 mm 0 mps 748 mmHg 91%
    17:00 +20°C° 0.1 mm 0 mps 748 mmHg 92%
    18:00 +20°C° 0.1 mm 0 mps 748 mmHg 93%
    19:00 +20°C° 0.1 mm 0 mps 748 mmHg 93%
    20:00 +19°C° 0 mm 0 mps 748 mmHg 92%
    21:00 +19°C° 0 mm 0 mps 748 mmHg 92%
    22:00 +19°C° 0 mm 0 mps 749 mmHg 91%
    23:00 +19°C° 0 mm 0 mps 749 mmHg 90%

    23 July, Tuesday

    Time Temperature Precipitation Wind Pressure Humidity
    00:00 +19°C° 0 mm 0 mps 749 mmHg 88%
    01:00 +18°C° 0 mm 0 mps 749 mmHg 87%
    02:00 +18°C° 0 mm 0 mps 749 mmHg 87%
    03:00 +20°C° 0 mm 1 mps 749 mmHg 87%
    04:00 +19°C° 0 mm 1 mps 749 mmHg 87%
    05:00 +20°C° 0 mm 1 mps 750 mmHg 83%
    06:00 +21°C° 0 mm 1 mps 750 mmHg 79%
    07:00 +22°C° 0 mm 1 mps 751 mmHg 75%
    08:00 +23°C° 0 mm 1 mps 751 mmHg 65%
    09:00 +25°C° 0 mm 1 mps 751 mmHg 55%
    10:00 +27°C° 0 mm 1 mps 751 mmHg 46%
    11:00 +28°C° 0 mm 1 mps 751 mmHg 44%
    12:00 +29°C° 0 mm 1 mps 751 mmHg 42%
    13:00 +30°C° 0 mm 1 mps 751 mmHg 40%
    14:00 +29°C° 0 mm 1 mps 751 mmHg 42%
    15:00 +28°C° 0 mm 1 mps 751 mmHg 43%
    16:00 +28°C° 0 mm 1 mps 751 mmHg 45%
    17:00 +26°C° 0 mm 1 mps 751 mmHg 56%
    18:00 +24°C° 0 mm 1 mps 752 mmHg 67%
    19:00 +22°C° 0 mm 1 mps 752 mmHg 78%
    20:00 +21°C° 0 mm 1 mps 752 mmHg 83%
    21:00 +20°C° 0 mm 1 mps 752 mmHg 88%
    22:00 +19°C° 0 mm 1 mps 753 mmHg 93%
    23:00 +16°C° 0 mm 0 mps 753 mmHg 94%

    24 July, Wednesday

    Time Temperature Precipitation Wind Pressure Humidity
    00:00 +16°C° 0 mm 0 mps 753 mmHg 94%
    01:00 +15°C° 0 mm 0 mps 753 mmHg 95%
    02:00 +15°C° 0 mm 0 mps 753 mmHg 94%
    03:00 +15°C° 0 mm 0 mps 753 mmHg 94%
    04:00 +15°C° 0 mm 0 mps 753 mmHg 93%
    05:00 +16°C° 0 mm 0 mps 753 mmHg 88%
    06:00 +18°C° 0 mm 0 mps 753 mmHg 82%
    07:00 +19°C° 0 mm 0 mps 754 mmHg 76%
    08:00 +22°C° 0 mm 0 mps 754 mmHg 67%
    09:00 +26°C° 0 mm 1 mps 754 mmHg 57%
    10:00 +28°C° 0 mm 1 mps 754 mmHg 48%
    11:00 +29°C° 0 mm 2 mps 754 mmHg 43%
    12:00 +30°C° 0 mm 2 mps 753 mmHg 39%
    13:00 +31°C° 0 mm 2 mps 753 mmHg 35%
    14:00 +30°C° 0 mm 2 mps 753 mmHg 38%
    15:00 +30°C° 0 mm 2 mps 753 mmHg 41%
    16:00 +29°C° 0 mm 2 mps 753 mmHg 45%
    17:00 +27°C° 0 mm 2 mps 753 mmHg 55%
    18:00 +25°C° 0 mm 2 mps 753 mmHg 66%
    19:00 +23°C° 0 mm 1 mps 753 mmHg 76%
    20:00 +21°C° 0 mm 2 mps 753 mmHg 79%
    21:00 +20°C° 0 mm 2 mps 754 mmHg 81%
    22:00 +19°C° 0 mm 2 mps 754 mmHg 84%
    23:00 +19°C° 0 mm 1 mps 754 mmHg 86%
    Show more